Zurück zum Katalog

STARLINK-33856

AktivKommunikationVLEO
NORAD 63638·PAYLOAD·🇺🇸 United States

Gestartet Apr 25, 2025 von Cape Canaveral Space Force Station

Loading…

Nächste Überflüge (nächste 24 Stunden)

TLE

AktuellSource: CelesTrak SupGP

Epoche: Sep 14, 2026, 23:09 UTC

1 63638C 25083E   26257.96506944 -.00003051  00000+0 -11045-3 0  2570
2 63638  43.0017  16.1030 0001576 275.2257 174.3585 15.27596088    18

Verfolge STARLINK-33856 in Echtzeit mit AllMySat

Download on the App Store